Theta_e
320 318 325 321 308 308 301 302 306 306 311 311 312 314 314 306 310 308 304 307 309 313 320 329 337 344 345 345 345 345 344 344 345 345 344 343 342 341 340 338 338 339 339 339 340 342 342 341 339
315 320 324 318 304 299 301 305 304 307 315 313 306 307 307 301 300 300 302 307 309 313 318 324 331 334 340 343 343 344 344 344 344 344 344 344 344 343 341 340 339 338 336 337 340 340 340 339 337
314 318 317 312 305 299 301 305 307 308 310 313 304 301 302 299 298 300 304 306 310 313 314 321 325 328 331 334 336 338 341 343 344 344 343 343 343 344 343 343 342 340 338 336 338 340 341 339 337
320 321 315 306 301 303 304 306 307 307 305 306 305 302 299 299 299 302 304 306 310 310 311 316 320 321 324 326 328 330 331 332 334 337 339 341 342 342 342 342 343 342 340 338 337 337 340 341 340
322 317 308 304 303 303 303 304 306 307 305 306 306 301 298 299 301 302 304 305 306 307 308 308 315 316 318 319 320 321 322 323 326 327 329 334 337 338 340 341 342 342 341 340 340 338 340 341 341
314 315 305 303 302 302 302 302 304 306 304 300 303 300 299 301 300 302 303 303 303 303 305 306 309 311 313 315 316 317 317 317 318 318 320 322 322 324 326 332 336 340 341 341 341 341 340 339 339
312 309 306 304 302 300 302 300 302 304 300 299 303 301 299 298 301 301 301 302 302 303 304 305 306 309 309 311 312 313 313 313 313 314 313 313 313 315 316 318 321 327 332 338 340 340 340 339 338
314 311 302 303 300 301 300 298 297 301 300 296 299 300 299 300 301 301 301 301 302 302 303 303 305 306 308 308 307 309 310 310 310 310 310 309 311 312 312 314 314 317 318 322 328 335 339 339 338
311 306 302 302 301 303 296 297 294 294 295 294 295 297 298 300 300 300 300 301 301 302 303 303 304 305 306 305 305 310 308 307 308 309 309 310 309 309 309 311 311 312 313 316 323 327 333 336 334
309 305 304 303 303 300 296 297 295 293 294 293 293 295 297 298 299 299 299 299 300 301 301 303 303 303 304 303 306 307 306 307 308 308 308 308 308 308 308 309 309 310 310 312 314 318 322 330 338
300 304 299 294 294 295 295 293 293 293 293 297 294 295 296 297 298 298 299 299 300 301 302 302 303 303 304 305 306 306 306 307 307 307 307 307 307 308 308 308 309 310 308 310 311 312 317 321 322
298 292 292 291 291 291 292 291 291 293 298 294 296 297 296 296 297 298 298 299 300 300 301 301 301 302 304 305 304 305 305 305 305 306 306 306 306 306 306 307 307 308 308 308 309 310 311 311 314
295 291 289 289 289 289 289 290 291 291 296 294 294 294 295 297 298 298 299 300 300 299 301 302 302 302 302 302 304 304 304 304 305 305 306 305 305 305 305 306 306 307 308 307 307 308 308 308 309
290 290 289 289 289 289 288 289 288 293 294 293 292 293 295 296 297 298 297 298 299 299 300 301 301 301 301 301 302 303 304 303 304 305 305 305 305 304 304 305 305 306 307 306 306 306 306 306 308
289 288 288 288 288 288 288 289 288 294 291 292 292 294 294 295 297 297 299 299 300 300 301 300 300 301 300 301 302 302 303 302 303 304 305 304 304 303 304 304 304 305 306 306 305 305 305 305 306
287 288 288 287 287 288 288 291 292 292 292 292 293 294 293 295 295 297 299 299 299 299 299 300 298 299 300 300 301 301 302 302 303 303 304 304 303 303 303 303 304 304 304 304 304 304 303 303 304
287 287 285 286 286 287 288 291 293 290 290 292 293 293 293 294 295 296 298 299 299 299 299 299 300 300 299 300 301 301 302 302 303 303 303 303 303 303 302 302 303 304 303 303 303 302 303 302 302
286 285 284 287 285 285 286 287 292 292 290 291 293 294 294 294 295 297 297 298 298 298 299 299 299 298 299 300 301 301 302 302 303 303 303 302 302 302 301 301 302 302 301 301 302 301 302 301 301
285 285 285 285 284 285 287 287 290 294 291 291 293 294 294 294 296 297 297 298 297 298 298 298 298 298 299 300 299 299 299 300 302 302 302 301 301 301 300 300 300 301 299 300 300 300 299 299 301
285 284 285 285 283 284 286 286 291 293 293 292 294 295 294 295 295 295 296 296 296 298 298 298 297 298 298 299 300 299 299 300 300 300 301 301 300 300 299 299 299 299 298 298 299 299 298 299 300
283 284 283 283 284 283 283 288 290 289 288 290 291 292 293 293 294 295 295 296 297 297 298 297 297 297 297 297 299 299 300 300 299 300 299 299 299 299 299 298 298 297 297 296 297 297 297 295 298
282 283 282 282 284 284 283 284 290 292 291 291 293 293 293 292 291 293 295 296 297 298 299 297 297 297 296 296 297 297 296 295 297 297 298 298 298 298 298 297 296 296 294 292 293 295 295 294 292
282 283 282 282 282 282 282 283 290 288 292 292 292 293 293 293 292 292 293 296 297 298 298 298 297 296 296 296 296 297 296 297 297 297 296 297 297 297 296 296 296 295 295 293 292 292 292 293 293
283 282 282 282 282 282 281 282 289 292 291 291 291 292 292 292 292 293 294 295 296 297 296 297 297 296 296 295 296 296 295 295 294 295 294 294 294 294 295 294 293 293 294 294 293 293 292 292 292
282 282 285 284 282 283 279 279 289 291 291 291 291 292 292 293 293 293 293 293 294 295 296 296 296 295 295 295 296 296 295 294 293 293 293 292 292 292 292 292 292 292 292 293 293 293 293 292 291
282 283 285 280 280 281 278 280 290 291 290 290 290 292 291 292 293 293 294 295 295 295 296 296 295 294 294 294 295 295 294 293 293 292 292 291 291 292 292 291 291 290 290 290 290 290 290 291 291
281 281 282 279 273 278 283 285 290 291 290 291 292 291 293 293 293 293 294 293 294 294 295 295 294 293 293 294 294 294 293 292 291 291 291 291 291 290 290 289 289 289 289 288 288 289 289 290 290
281 283 280 281 278 277 279 280 286 289 290 290 291 292 293 294 293 293 293 293 293 294 294 293 293 293 293 294 293 292 292 291 291 291 290 290 290 290 289 289 289 289 289 289 288 288 288 288 288
279 280 278 280 281 280 278 283 292 291 292 292 292 292 293 293 293 294 294 294 293 294 293 292 291 291 293 293 292 291 291 290 290 290 290 289 289 289 288 289 288 288 287 288 287 288 287 286 286
279 280 282 283 280 277 277 282 289 290 290 290 292 292 293 293 294 294 294 293 292 292 293 291 291 291 292 292 290 290 290 290 289 289 289 289 288 289 289 288 287 287 287 287 286 285 285 285 285
Wind_Speed
15 9 3 3 5 3 4 4 0 5 4 4 2 2 4 6 3 3 4 10 10 9 10 12 17 12 10 9 8 8 8 9 8 10 9 8 7 8 9 9 9 9 9 7 3 8 10 7 5
9 5 3 0 5 6 5 4 5 2 6 5 4 2 1 4 3 5 5 10 8 8 8 12 14 15 14 14 12 10 9 8 9 9 10 9 9 10 10 10 10 10 10 9 7 4 5 5 3
5 3 3 2 3 6 2 7 7 5 3 3 4 2 1 5 3 2 5 6 5 6 8 11 14 15 15 14 15 15 14 14 14 10 9 9 10 11 11 12 12 11 11 11 10 7 8 8 7
3 3 3 6 6 2 1 10 6 8 4 3 3 4 4 2 1 3 4 4 4 6 7 10 13 14 15 16 16 15 15 16 15 14 15 14 12 12 9 10 13 13 13 12 12 13 11 11 12
1 2 5 5 6 3 4 5 7 9 5 6 5 6 4 4 1 1 1 3 4 6 7 9 12 14 15 15 15 15 16 17 17 16 15 14 14 14 13 13 11 13 15 15 15 15 13 12 11
3 2 7 12 7 5 5 4 6 8 5 5 4 5 5 5 5 3 1 3 4 5 5 7 9 12 14 15 16 16 17 17 16 16 17 17 16 17 16 15 13 13 15 17 18 17 15 14 13
4 5 10 6 8 7 7 6 6 7 6 6 3 5 4 8 6 4 3 2 3 5 6 6 7 7 9 14 14 15 15 15 15 16 16 15 13 15 16 16 17 18 18 17 19 19 17 17 15
2 3 5 5 9 8 8 7 1 5 4 3 2 5 3 11 8 6 4 3 3 4 5 5 5 6 6 7 10 11 12 13 13 13 14 12 10 12 13 13 17 18 19 18 18 19 19 19 18
2 5 6 6 8 5 8 8 3 1 3 4 5 3 4 11 8 7 6 5 4 3 3 4 5 5 6 6 5 3 7 7 9 9 10 8 8 10 12 10 14 15 16 17 17 19 19 19 17
4 5 5 2 2 4 9 6 7 5 6 7 6 6 7 9 8 8 8 6 5 3 2 2 3 4 5 4 5 5 6 6 7 8 9 7 8 8 9 8 9 11 12 14 15 16 18 12 11
2 3 3 4 3 2 6 4 3 5 9 11 11 14 13 11 10 9 8 5 4 3 3 2 1 2 3 3 3 2 3 3 4 7 7 7 6 6 6 6 6 7 7 7 10 10 8 10 8
4 3 2 4 2 3 4 1 5 11 3 1 7 11 14 14 12 11 10 9 8 6 5 4 4 3 1 2 3 3 3 4 4 6 8 6 5 7 7 6 8 7 6 9 8 7 10 12 11
3 5 3 2 2 1 1 6 7 14 14 4 6 9 14 14 13 10 9 8 7 8 6 6 5 4 2 3 3 3 3 3 5 5 6 6 7 7 8 7 7 8 8 8 8 9 9 11 12
4 5 6 1 1 1 3 4 2 3 7 13 11 13 14 15 15 11 11 11 10 8 7 6 6 5 4 4 4 4 4 5 5 5 6 7 7 7 8 8 8 8 7 8 8 9 10 10 11
7 3 2 4 0 1 2 9 16 7 2 14 16 14 15 16 14 15 13 11 9 8 6 6 5 5 5 5 5 4 4 5 6 6 8 9 8 9 10 8 8 8 8 10 9 9 9 10 10
3 2 5 3 1 2 3 6 3 4 11 13 17 16 15 17 18 15 13 11 9 8 7 5 4 5 5 5 4 4 4 5 5 6 7 9 10 10 9 8 9 9 9 8 9 9 9 10 10
3 3 5 3 1 2 7 8 2 3 8 13 16 18 17 17 16 15 13 13 11 9 7 7 6 6 5 5 5 5 6 5 5 6 6 9 10 10 10 9 10 11 10 9 9 10 10 11 10
6 5 4 5 3 3 7 21 16 9 9 14 14 16 18 18 18 16 14 12 10 9 8 6 5 5 4 4 4 4 4 4 5 6 6 9 8 11 10 10 11 11 10 10 10 12 10 11 12
2 1 4 1 2 4 8 18 22 15 15 19 20 19 18 19 15 14 12 11 10 9 9 7 5 4 3 3 4 4 5 7 7 7 9 10 10 11 11 9 11 11 11 12 13 12 13 11 11
2 2 4 1 1 3 6 20 24 20 18 19 18 17 18 17 16 15 14 11 11 10 10 8 6 5 3 2 2 3 5 6 7 8 9 10 11 12 11 11 11 12 11 13 13 13 11 11 9
2 3 2 3 4 2 9 11 8 2 4 10 13 13 11 13 15 16 16 15 12 12 11 9 7 5 3 2 2 3 6 6 7 7 9 9 13 13 12 12 11 12 11 11 12 12 15 12 11
3 3 3 1 3 4 4 8 7 3 9 9 9 8 8 9 11 12 17 17 15 13 9 8 5 4 3 1 3 6 6 9 9 9 9 11 12 12 12 12 12 11 9 11 11 12 13 13 13
2 3 2 1 0 3 3 6 7 2 2 2 3 5 4 5 8 12 16 17 13 10 9 7 6 5 3 1 3 5 8 7 8 8 12 12 10 11 11 12 13 13 10 11 11 12 12 10 12
9 3 2 2 1 4 2 4 5 4 1 1 2 3 3 5 6 7 9 9 11 8 7 6 6 5 4 3 4 6 9 10 9 10 10 9 9 8 10 12 13 14 13 13 11 12 14 13 13
2 3 2 2 3 3 2 4 12 5 4 4 1 1 3 5 7 8 10 10 10 10 9 7 7 6 5 5 5 6 7 9 11 11 9 12 9 9 11 13 13 11 14 15 14 14 15 15 15
6 3 4 6 4 1 2 8 5 4 3 4 5 5 2 4 6 7 9 9 10 9 8 7 6 6 5 5 5 6 7 5 7 9 9 9 10 10 13 13 14 16 16 16 15 12 13 16 15
6 6 3 6 2 3 3 6 15 7 8 11 10 7 8 5 6 8 8 8 9 9 9 7 6 6 5 5 5 6 6 7 8 11 10 9 11 10 13 15 15 16 16 17 17 13 16 16 16
3 2 3 2 5 6 4 6 9 2 3 3 3 8 8 6 7 6 7 8 8 8 7 6 6 6 5 4 4 5 6 7 8 9 11 12 12 13 14 15 15 16 17 18 18 16 17 18 15
5 4 2 4 3 4 2 6 6 9 7 4 3 3 3 4 5 7 8 8 9 9 8 6 6 7 6 5 4 5 5 6 8 8 10 11 13 14 14 15 16 17 19 18 18 19 20 20 20
3 5 8 5 5 2 3 8 3 5 4 4 7 7 6 6 6 7 7 6 8 11 10 8 7 8 7 5 4 4 5 6 7 8 10 11 12 13 14 15 16 18 19 18 19 19 20 21 20
Wind_Direction
316 321 283 235 229 247 141 133 164 143 129 55 79 287 62 24 355 32 141 22 356 353 357 13 8 19 25 18 11 5 333 315 271 249 246 241 246 254 262 265 269 278 291 305 284 262 261 247 207
322 319 234 292 255 226 141 147 174 141 111 125 105 109 146 91 74 97 142 360 352 1 6 18 14 30 31 36 26 22 11 355 327 306 283 272 266 251 252 261 269 279 281 283 296 249 202 198 191
290 314 285 279 237 246 178 167 139 131 161 187 128 10 100 115 113 62 29 346 347 17 17 21 20 30 36 38 40 34 34 33 25 357 320 310 310 299 279 257 257 263 273 281 271 254 241 213 196
295 186 142 245 224 154 137 154 146 162 143 168 156 148 130 38 130 18 355 349 3 27 31 36 29 34 37 38 38 37 36 38 32 21 16 11 356 339 321 291 270 258 259 264 267 266 251 228 235
230 210 222 227 205 162 166 150 179 181 154 154 187 153 154 162 141 78 48 26 28 40 31 38 30 36 39 40 39 37 36 34 28 24 15 15 15 9 350 331 309 277 264 260 263 264 263 255 249
167 258 221 226 190 172 175 172 189 202 164 133 189 161 146 130 177 124 97 64 52 57 47 37 53 40 41 40 39 37 35 33 29 23 19 18 11 7 4 2 350 318 296 270 265 262 257 257 257
225 212 234 232 186 178 180 159 210 183 168 181 127 197 121 187 156 149 131 111 84 67 64 54 44 49 59 44 38 40 40 36 32 26 18 13 11 8 6 360 358 350 348 322 287 268 259 253 247
219 240 190 209 191 186 153 171 182 220 165 102 231 215 185 184 161 168 159 130 110 81 66 53 46 40 48 46 40 37 35 31 27 25 16 7 1 5 4 0 356 349 344 337 326 318 268 253 247
231 217 221 191 174 155 155 187 157 16 198 206 202 258 90 134 154 174 180 173 160 135 85 53 39 35 33 39 41 42 37 27 20 13 10 352 1 353 347 354 344 344 343 334 331 329 320 270 246
232 233 205 65 119 156 162 201 170 218 203 224 214 193 160 166 179 187 190 181 177 153 95 36 19 23 17 22 17 15 19 15 13 10 2 356 351 347 326 322 319 329 337 327 331 322 323 290 258
66 266 114 104 80 119 158 202 188 222 228 230 216 191 184 188 193 203 204 205 197 189 211 222 303 347 352 3 347 11 9 359 356 2 356 346 341 339 335 327 329 330 328 324 323 317 315 313 334
145 81 0 124 121 160 176 150 232 223 236 31 220 187 180 195 200 206 210 207 207 212 226 234 244 256 255 323 357 353 350 354 347 347 343 339 334 334 331 325 324 319 322 317 315 309 309 302 299
105 139 87 77 93 99 259 236 262 251 242 223 186 181 193 202 206 211 215 218 218 227 226 227 232 250 280 309 315 322 329 327 330 318 323 327 324 324 322 317 314 311 312 309 308 306 304 301 294
112 132 129 139 48 55 274 236 263 237 243 211 199 204 207 209 208 209 213 221 217 224 223 227 232 246 252 281 292 317 321 324 319 317 321 319 317 315 309 310 306 303 304 301 299 298 297 295 292
123 111 180 196 235 200 301 243 229 215 144 205 210 214 215 217 215 218 213 216 215 216 213 216 228 238 257 278 297 315 322 313 313 317 317 315 314 312 310 305 301 303 302 294 289 289 287 285 283
146 225 211 125 280 160 251 259 185 210 209 215 217 218 221 223 221 220 221 220 212 219 213 207 225 250 266 274 293 303 302 302 304 309 309 310 314 313 307 302 299 303 298 292 286 286 286 282 283
189 224 224 194 139 279 229 275 204 176 211 231 222 221 221 225 221 224 221 221 220 216 211 214 221 250 285 281 287 289 291 290 299 301 303 312 315 313 310 304 302 302 296 290 288 286 284 285 282
175 216 217 241 131 222 229 261 261 229 231 237 235 228 226 225 221 217 214 212 212 212 216 224 232 261 286 286 282 282 290 294 305 308 311 315 312 311 309 304 301 303 297 292 287 285 284 284 286
52 232 252 148 87 302 257 274 274 264 246 248 243 239 234 231 223 217 208 204 204 211 217 224 222 244 285 289 306 301 310 314 310 317 317 315 313 315 310 305 303 301 297 295 293 290 288 282 282
154 233 246 205 158 288 289 279 275 264 245 246 252 240 236 235 221 214 206 196 202 208 215 215 223 229 239 265 297 303 313 308 314 314 308 311 312 313 307 308 304 302 299 295 290 287 285 280 276
166 231 226 303 305 241 297 261 260 169 243 244 249 249 247 239 234 218 201 197 199 207 209 214 216 230 245 260 289 295 290 276 297 313 315 319 315 312 308 307 305 303 300 293 292 289 284 283 277
220 133 115 345 302 280 333 293 305 261 286 243 243 223 229 219 218 218 204 201 199 209 203 203 203 225 227 216 309 316 307 306 313 310 308 310 310 308 304 303 300 297 296 291 292 293 289 281 275
99 152 125 140 137 314 171 251 266 355 253 18 28 192 212 219 210 203 204 203 205 197 197 193 196 215 211 242 310 309 304 304 309 308 310 309 307 306 306 306 303 300 294 286 281 283 279 275 280
134 132 111 120 197 240 91 269 269 230 103 95 79 114 163 172 178 186 187 186 189 182 192 200 209 217 205 242 284 293 299 307 310 313 310 310 310 311 311 313 307 300 295 290 283 276 270 266 262
211 198 259 237 190 257 131 230 261 282 247 239 59 104 161 169 181 181 185 189 193 195 197 202 213 223 212 241 269 292 300 307 307 312 310 312 310 312 311 311 306 300 299 296 291 285 279 272 261
188 266 231 242 220 73 131 232 246 193 242 268 279 237 260 210 203 211 207 206 207 205 202 209 214 227 223 254 285 301 310 311 309 309 309 304 306 312 316 312 311 300 299 297 292 284 280 278 278
149 218 10 101 71 256 232 261 278 236 255 241 232 227 238 239 229 224 219 219 214 208 211 219 216 217 228 258 286 304 311 316 311 309 306 305 309 313 311 308 302 300 297 292 289 280 277 274 270
267 99 153 236 208 231 221 273 252 174 156 113 166 207 226 243 250 245 240 228 220 221 215 214 215 227 228 246 274 302 313 314 310 308 305 310 311 311 307 304 302 301 298 293 290 282 277 276 273
166 208 228 295 260 249 232 233 227 207 207 198 170 164 233 240 243 237 239 233 223 219 216 216 208 215 223 236 261 288 304 305 303 302 309 311 311 307 306 306 305 304 297 296 287 283 283 278 275
280 222 196 225 200 253 336 259 203 226 235 223 243 256 245 242 243 247 248 241 228 226 219 224 213 208 213 224 244 272 296 305 306 310 311 310 303 304 305 306 304 301 300 297 293 295 291 285 282